When you browse on this site, cookies collect data to enhance your experience and personalize the content and advertising you see.
Visit our Privacy Policy to learn more. By continuing to use the site, you agree to this use of cookies and data.
  • In Czech Republic
  • List of Countries
  • For 7 days
  • Water Temperature
  • Weather Map
  • Weather Widgets
  • user-avatar
    Login

    Hourly Weather Gold Coast

    Today, 13 December, Friday

    Time Temperature Precipitation Wind Pressure Humidity
    00:00 +24°C° 0.1 mm 2 mps 755 mmHg 96%
    01:00 +24°C° 0.1 mm 2 mps 754 mmHg 96%
    02:00 +24°C° 0.4 mm 2 mps 754 mmHg 95%
    03:00 +24°C° 0.4 mm 2 mps 754 mmHg 95%
    04:00 +24°C° 0 mm 2 mps 754 mmHg 96%
    05:00 +24°C° 0.4 mm 2 mps 754 mmHg 91%
    06:00 +25°C° 0.4 mm 2 mps 755 mmHg 87%
    07:00 +26°C° 0.4 mm 1 mps 755 mmHg 82%
    08:00 +26°C° 0.3 mm 3 mps 755 mmHg 81%
    09:00 +27°C° 0.3 mm 4 mps 755 mmHg 80%
    10:00 +27°C° 0 mm 3 mps 755 mmHg 77%
    11:00 +27°C° 1.2 mm 3 mps 754 mmHg 80%
    12:00 +27°C° 1.2 mm 3 mps 754 mmHg 83%
    13:00 +26°C° 1.2 mm 2 mps 754 mmHg 86%
    14:00 +26°C° 0.4 mm 3 mps 753 mmHg 84%
    15:00 +26°C° 0.4 mm 3 mps 753 mmHg 83%
    16:00 +26°C° 0 mm 2 mps 753 mmHg 85%
    17:00 +25°C° 0.2 mm 2 mps 753 mmHg 88%
    18:00 +25°C° 0.2 mm 2 mps 754 mmHg 91%
    19:00 +24°C° 0.2 mm 2 mps 754 mmHg 93%
    20:00 +24°C° 0.4 mm 2 mps 755 mmHg 94%
    21:00 +24°C° 0.4 mm 2 mps 755 mmHg 95%
    22:00 +23°C° 0 mm 1 mps 755 mmHg 96%
    23:00 +23°C° 0.2 mm 1 mps 755 mmHg 96%

    Tomorrow, 14 December, Saturday

    Time Temperature Precipitation Wind Pressure Humidity
    00:00 +23°C° 0.2 mm 1 mps 754 mmHg 97%
    01:00 +23°C° 0.2 mm 1 mps 754 mmHg 97%
    02:00 +22°C° 0.1 mm 1 mps 754 mmHg 97%
    03:00 +22°C° 0.1 mm 1 mps 754 mmHg 97%
    04:00 +21°C° 0.1 mm 2 mps 753 mmHg 97%
    05:00 +23°C° 0 mm 2 mps 754 mmHg 94%
    06:00 +24°C° 0 mm 2 mps 754 mmHg 90%
    07:00 +26°C° 0 mm 2 mps 755 mmHg 87%
    08:00 +27°C° 0.1 mm 2 mps 754 mmHg 80%
    09:00 +28°C° 0.1 mm 3 mps 754 mmHg 73%
    10:00 +29°C° 0.1 mm 3 mps 754 mmHg 66%
    11:00 +29°C° 0.1 mm 3 mps 754 mmHg 67%
    12:00 +29°C° 0.1 mm 3 mps 753 mmHg 69%
    13:00 +28°C° 0.1 mm 3 mps 753 mmHg 70%
    14:00 +28°C° 0 mm 4 mps 752 mmHg 69%
    15:00 +28°C° 0 mm 4 mps 752 mmHg 69%
    16:00 +28°C° 0 mm 4 mps 751 mmHg 69%
    17:00 +27°C° 0 mm 3 mps 752 mmHg 76%
    18:00 +25°C° 0 mm 2 mps 753 mmHg 84%
    19:00 +24°C° 0 mm 1 mps 753 mmHg 91%
    20:00 +24°C° 0 mm 1 mps 754 mmHg 92%
    21:00 +24°C° 0 mm 1 mps 754 mmHg 93%
    22:00 +23°C° 0 mm 1 mps 755 mmHg 94%
    23:00 +23°C° 0 mm 1 mps 754 mmHg 95%

    Day after tomorrow, 15 December, Sunday

    Time Temperature Precipitation Wind Pressure Humidity
    00:00 +23°C° 0 mm 1 mps 754 mmHg 97%
    01:00 +23°C° 0 mm 1 mps 753 mmHg 98%
    02:00 +23°C° 0 mm 1 mps 753 mmHg 98%
    03:00 +23°C° 0 mm 2 mps 753 mmHg 98%
    04:00 +23°C° 0 mm 2 mps 753 mmHg 98%
    05:00 +24°C° 0 mm 2 mps 754 mmHg 91%
    06:00 +26°C° 0 mm 3 mps 754 mmHg 85%
    07:00 +27°C° 0 mm 3 mps 754 mmHg 78%
    08:00 +29°C° 0 mm 3 mps 754 mmHg 68%
    09:00 +33°C° 0 mm 3 mps 754 mmHg 57%
    10:00 +35°C° 0 mm 4 mps 754 mmHg 47%
    11:00 +35°C° 0 mm 4 mps 753 mmHg 45%
    12:00 +36°C° 0 mm 5 mps 753 mmHg 44%
    13:00 +36°C° 0 mm 6 mps 752 mmHg 43%
    14:00 +35°C° 0 mm 6 mps 752 mmHg 50%
    15:00 +33°C° 0 mm 6 mps 751 mmHg 56%
    16:00 +32°C° 0 mm 5 mps 751 mmHg 63%
    17:00 +29°C° 0 mm 5 mps 751 mmHg 71%
    18:00 +27°C° 0 mm 4 mps 751 mmHg 79%
    19:00 +26°C° 0 mm 4 mps 752 mmHg 86%
    20:00 +25°C° 0 mm 3 mps 752 mmHg 89%
    21:00 +25°C° 0 mm 3 mps 753 mmHg 92%
    22:00 +24°C° 0 mm 3 mps 754 mmHg 95%
    23:00 +24°C° 0 mm 3 mps 753 mmHg 95%

    16 December, Monday

    Time Temperature Precipitation Wind Pressure Humidity
    00:00 +24°C° 0 mm 3 mps 753 mmHg 96%
    01:00 +24°C° 0 mm 3 mps 753 mmHg 96%
    02:00 +24°C° 0 mm 3 mps 752 mmHg 96%
    03:00 +22°C° 0 mm 3 mps 752 mmHg 96%
    04:00 +22°C° 0 mm 3 mps 752 mmHg 96%
    05:00 +25°C° 0 mm 3 mps 752 mmHg 89%
    06:00 +26°C° 0 mm 3 mps 753 mmHg 81%
    07:00 +28°C° 0 mm 3 mps 753 mmHg 74%
    08:00 +31°C° 0 mm 3 mps 753 mmHg 58%
    09:00 +36°C° 0 mm 3 mps 753 mmHg 42%
    10:00 +39°C° 0 mm 3 mps 753 mmHg 27%
    11:00 +39°C° 0 mm 3 mps 752 mmHg 26%
    12:00 +40°C° 0 mm 3 mps 752 mmHg 26%
    13:00 +40°C° 0 mm 3 mps 751 mmHg 25%
    14:00 +38°C° 0 mm 3 mps 751 mmHg 30%
    15:00 +36°C° 0 mm 3 mps 751 mmHg 35%
    16:00 +34°C° 0 mm 3 mps 751 mmHg 40%
    17:00 +32°C° 0 mm 4 mps 752 mmHg 45%
    18:00 +29°C° 0 mm 6 mps 753 mmHg 50%
    19:00 +27°C° 0 mm 7 mps 754 mmHg 55%
    20:00 +26°C° 0 mm 7 mps 755 mmHg 64%
    21:00 +24°C° 0 mm 7 mps 756 mmHg 73%
    22:00 +23°C° 0 mm 7 mps 757 mmHg 81%
    23:00 +22°C° 0 mm 6 mps 757 mmHg 82%

    17 December, Tuesday

    Time Temperature Precipitation Wind Pressure Humidity
    00:00 +22°C° 0 mm 6 mps 757 mmHg 84%
    01:00 +21°C° 0 mm 6 mps 757 mmHg 85%
    02:00 +21°C° 0 mm 6 mps 757 mmHg 85%
    03:00 +21°C° 0 mm 6 mps 757 mmHg 85%
    04:00 +21°C° 0 mm 6 mps 757 mmHg 84%
    05:00 +22°C° 0 mm 6 mps 758 mmHg 78%
    06:00 +23°C° 0 mm 6 mps 758 mmHg 72%
    07:00 +24°C° 0 mm 7 mps 759 mmHg 66%
    08:00 +24°C° 0 mm 7 mps 759 mmHg 62%
    09:00 +26°C° 0 mm 7 mps 759 mmHg 58%
    10:00 +27°C° 0 mm 7 mps 759 mmHg 54%
    11:00 +27°C° 0 mm 7 mps 759 mmHg 53%
    12:00 +28°C° 0 mm 7 mps 759 mmHg 52%
    13:00 +28°C° 0 mm 7 mps 758 mmHg 50%
    14:00 +27°C° 0 mm 7 mps 758 mmHg 51%
    15:00 +27°C° 0 mm 7 mps 758 mmHg 52%
    16:00 +27°C° 0 mm 7 mps 758 mmHg 52%
    17:00 +24°C° 0 mm 7 mps 759 mmHg 59%
    18:00 +22°C° 0 mm 6 mps 759 mmHg 66%
    19:00 +20°C° 0 mm 6 mps 760 mmHg 73%
    20:00 +20°C° 0 mm 5 mps 760 mmHg 77%
    21:00 +19°C° 0 mm 5 mps 761 mmHg 81%
    22:00 +18°C° 0 mm 4 mps 761 mmHg 85%
    23:00 +18°C° 0 mm 4 mps 761 mmHg 86%

    18 December, Wednesday

    Time Temperature Precipitation Wind Pressure Humidity
    00:00 +18°C° 0 mm 4 mps 760 mmHg 87%
    01:00 +17°C° 0 mm 4 mps 760 mmHg 88%
    02:00 +17°C° 0 mm 4 mps 760 mmHg 89%
    03:00 +17°C° 0 mm 3 mps 760 mmHg 90%
    04:00 +16°C° 0 mm 3 mps 760 mmHg 91%
    05:00 +18°C° 0 mm 3 mps 760 mmHg 81%
    06:00 +20°C° 0 mm 4 mps 761 mmHg 72%
    07:00 +22°C° 0 mm 4 mps 761 mmHg 63%
    08:00 +23°C° 0 mm 4 mps 761 mmHg 56%
    09:00 +26°C° 0 mm 4 mps 761 mmHg 50%
    10:00 +28°C° 0 mm 4 mps 761 mmHg 44%
    11:00 +28°C° 0 mm 4 mps 760 mmHg 43%
    12:00 +28°C° 0 mm 5 mps 760 mmHg 41%
    13:00 +29°C° 0 mm 5 mps 760 mmHg 40%
    14:00 +28°C° 0 mm 5 mps 759 mmHg 43%
    15:00 +27°C° 0 mm 5 mps 759 mmHg 46%
    16:00 +27°C° 0 mm 5 mps 759 mmHg 48%
    17:00 +25°C° 0 mm 4 mps 759 mmHg 57%
    18:00 +22°C° 0 mm 4 mps 760 mmHg 65%
    19:00 +20°C° 0 mm 3 mps 760 mmHg 73%
    20:00 +19°C° 0 mm 3 mps 760 mmHg 76%
    21:00 +18°C° 0 mm 2 mps 761 mmHg 79%
    22:00 +18°C° 0 mm 2 mps 761 mmHg 82%
    23:00 +17°C° 0 mm 2 mps 760 mmHg 83%
    Show more